Location: Washington
(38.8950°N, 77.0370°W)
Time: 19:40:22
(UTC-04:00)

IDEFIX/ARIANE 42P - Visible Passes

Search period start: 31 July 2014 00:00
Search period end: 10 August 2014 00:00
Orbit: 785 x 805 km, 98.3° (Epoch: 31 July)

Date Brightness Start Highest point End Pass type
(mag) Time Alt. Az. Time Alt. Az. Time Alt. Az.
31 Jul 2.7 20:56:51 10° S 21:02:04 81° WSW 21:07:17 10° NNW visible
01 Aug 5.1 22:10:43 10° SW 22:13:56 16° W 22:17:10 10° NW visible
02 Aug 4.3 21:41:03 10° SSW 21:45:36 30° W 21:50:09 10° NW visible
03 Aug 3.2 21:12:16 10° S 21:17:22 57° W 21:22:29 10° NNW visible
04 Aug 2.6 20:44:04 10° SSE 20:49:15 78° ENE 20:54:27 10° N visible
04 Aug 5.3 22:27:57 10° WSW 22:29:25 11° W 22:30:52 10° WNW visible
05 Aug 4.8 21:57:05 10° SW 22:01:00 22° W 22:04:57 10° NW visible
06 Aug 3.8 21:27:52 10° SSW 21:32:43 40° W 21:37:35 10° NNW visible
07 Aug 2.8 20:59:21 10° S 21:04:32 75° WSW 21:09:44 10° NNW visible
08 Aug 5.1 22:13:31 10° SW 22:16:26 15° W 22:19:23 10° WNW visible
09 Aug 4.4 21:43:40 10° SSW 21:48:05 28° W 21:52:31 10° NW visible
